Regional Weather Roundup
Issued by NWS

Home | Current Version | Previous Version | Graphics & Text | Print | Product List | Glossary On
Versions: 1 2 3 4 5 6 7 8 9 10 11 12 13 14 15 16 17 18 19 20 21 22 23 24 25 26 27 28
000
ASUS45 KBOI 180510
RWRID

IDAHO REGIONAL WEATHER ROUNDUP
NATIONAL WEATHER SERVICE BOISE ID
1100 PM MDT TUE OCT 17 2017

NOTE: "FAIR" INDICATES FEW OR NO CLOUDS BELOW 12000 FEET
WITH NO SIGNIFICANT WEATHER AND/OR OBSTRUCTIONS TO VISIBILITY

IDZ012-014-180600-
SOUTHWEST IDAHO


CITY           SKY/WX    TMP DP  RH WIND       PRES   REMARKS
BOISE          CLEAR     47  33  58 CALM      30.12R
CALDWELL       CLEAR     44  35  70 S3        30.12R
MOUNTAIN HOME  CLEAR     42  26  53 S9        30.11R
$$

IDZ016-017-180600-
SOUTHCENTRAL IDAHO


CITY           SKY/WX    TMP DP  RH WIND       PRES   REMARKS
BURLEY         PTCLDY    44  26  49 S5        30.12R
JEROME         CLEAR     48  27  44 SE3       30.14R
TWIN FALLS     CLEAR     49  22  34 S12       30.14R
$$

IDZ019>023-180600-
SOUTHEAST IDAHO


CITY           SKY/WX    TMP DP  RH WIND       PRES   REMARKS
IDAHO FALLS    CLOUDY    48  28  46 SW9       30.10R
POCATELLO      CLOUDY    46  25  43 SW5       30.14R
REXBURG        CLOUDY    51  22  31 S9        30.09S
$$

IDZ006-010-011-018-031-032-180600-
CENTRAL IDAHO MOUNTAINS


CITY           SKY/WX    TMP DP  RH WIND       PRES   REMARKS
MCCALL         CLEAR     36  28  73 CALM      30.14R
HAILEY         CLEAR     43  25  49 NW9       30.16R
STANLEY          N/A     35  23  61 S5        30.22R WCI  31
SALMON         CLEAR     38  28  67 VRB3      30.06R
CHALLIS        CLEAR     46  22  38 CALM      30.11R
$$

IDZ002-004-006-007-026-180600-
NORTHERN IDAHO


CITY           SKY/WX    TMP DP  RH WIND       PRES   REMARKS
LEWISTON       CLOUDY    59  27  29 MISG      30.09R
LOWELL           N/A     47  45  93 CALM      30.11R
COEUR D`ALENE  CLOUDY    48  23  37 W7        30.04R
MULLAN PASS    CLOUDY    36  16  44 SW9G21    30.03R WCI  29
$$




USA.gov is the U.S. government's official web portal to all federal, state and local government web resources and services.